Погода в Шикарпуре

Пакистан     27°57′13″N   68°38′39″E
темп.,
°C
ветер,
м/с
пор.,
м/с
влажн.,
%
обл.,
%
осадки,
мм/ч
давл.,
гПа
погр.,
м
12 мая, ср
ср1223:00+34в13233 0.0 1001106
02:00+32всв33290 0.0 99953
05:00+30ю22315 0.0 100018
08:00+36юз22190 0.0 1000280
11:00+41зсз4570 0.0 10002550
14:00+44з5640 0.0 9974239
17:00+43зсз5550 0.0 9943945
20:00+37с1170 0.0 99411
13 мая, чт
чт1323:00+35ссз2280 0.0 99518
02:00+32зсз33100 0.0 99434
05:00+31зсз22100 0.0 99512
08:00+35св2380 0.0 997290
11:00+41в4380 0.0 9971573
14:00+44вюв3250 0.0 9954422
17:00+44юв3250 0.0 9944741
20:00+37юв1270 0.0 99512
14 мая, пт
пт1423:00+35вюв3380 0.0 99525
02:00+33всв47120 0.0 99592
05:00+31всв612290 0.0 996300
08:00+33в78270 0.0 998554
11:00+40юв45140 0.0 9981486
14:00+44ююв4480 0.0 9954669
17:00+44ююв43820 0.0 9935049
20:00+38юв4101264 0.0 995180
15 мая, сб
сб1523:00+37юв613130 0.0 995307
02:00+33всв46212 0.0 996105
05:00+31в49290 0.0 998227
08:00+33в67332 0.0 1000659
11:00+40в45192 0.0 9991763
14:00+43вюв55152 0.0 9973479
17:00+43вюв531261 0.0 9954563
20:00+38ю8111893 0.0 997436
16 мая, вс
вс1623:00+36всв591922 0.0 998218
02:00+33св8152722 0.0 1000712
05:00+32св814305 0.0 1001598
08:00+35св8112389 0.0 10031350
11:00+39всв991735 0.1 10032109
14:00+42св651560 0.0 10003160
17:00+42всв53142 0.0 9983954
20:00+37ссв471723 0.0 1000105